Tracking 23099 objects as of 13-May-2021
HD Live streaming from Space Station
objects crossing your sky now

RADFXSAT-2 (AO-109)

Track RADFXSAT-2 (AO-109) now!
10-day predictions
RADFXSAT-2 (AO-109) is classified as:


NORAD ID: 47311
Int'l Code: 2021-002C
Perigee: 486.3 km
Apogee: 530.4 km
Inclination: 60.7 °
Period: 94.6 minutes
Semi major axis: 6879 km
RCS: Unknown
Launch date: January 17, 2021
Source: United States (US)
Launch site: Pegasus launched from Western Range Air Space (WRAS)

Uplink (MHz): 145.860-145.890
Downlink (MHz): 435.790-435.760
Beacon (MHz): 435.750
Mode: 1200bps BPSK
Call sign:
Status: Inactive

aabbcc
Your satellite tracking list
Your tracking list is empty




NASA's NSSDC Master Catalog

Two Line Element Set (TLE):
1 47311U 21002C   21132.54558124  .00002000  00000-0  99039-4 0  9990
2 47311  60.6873  65.6021 0032062  29.2968 330.9907 15.21548693 17404
Source of the keplerian elements: AFSPC